This demonstration page uses our WeatherBlox Daily Observations layout. Learn more.

Left ArrowRight Arrow

Hourly Observations for August 2, 2019

Temp ( °F °C ) Dew Point ( °F °C ) Humidity (%) Winds ( mph kmh ) Pressure ( in mb ) Visibility ( mi km ) Precip ( " mm )
12:53 am 00:53 Clear 82 27.8 50 10 33 33 SSE 7 11 29.90 1013 10 16 0.00 0.00
1:53 am 01:53 Clear 79 26.1 51 10.6 38 38 SE 9 15 29.89 1012 10 16 0.00 0.00
2:53 am 02:53 Clear 78 25.6 52 11.1 40 40 SE 9 15 29.88 1012 10 16 0.00 0.00
3:53 am 03:53 Clear 78 25.6 54 12.2 43 43 SE 8 13 29.88 1012 10 16 0.00 0.00
4:53 am 04:53 Clear 76 24.4 54 12.2 47 47 SE 10 17 29.88 1012 10 16 0.00 0.00
5:53 am 05:53 Clear 76 24.4 55 12.8 48 48 SE 12 19 29.88 1012 10 16 0.00 0.00
6:53 am 06:53 Clear 75 23.9 56 13.3 52 52 SE 10 17 29.88 1012 10 16 0.00 0.00
7:53 am 07:53 Sunny 75 23.9 57 13.9 54 54 ESE 8 13 29.90 1013 10 16 0.00 0.00
8:53 am 08:53 Sunny 79 26.1 57 13.9 47 47 SE 12 19 29.91 1013 10 16 0.00 0.00
9:53 am 09:53 undefined 85 29.4 57 13.9 39 39 SE 12 19 29.91 1013 10 16 0.00 0.00
10:53 am 10:53 Sunny 91 32.8 55 12.8 30 30 SSE 15 24 29.90 1013 10 16 0.00 0.00
11:53 am 11:53 Sunny 95 35 51 10.6 23 23 S 16 26 29.90 1013 10 16 0.00 0.00
12:53 pm 12:53 undefined N/A N/A N/A undefined N/A N/A N/A 0.00 0.00
1:53 pm 13:53 Sunny 99 37.2 50 10 19 19 S 12 19 29.86 1011 10 16 0.00 0.00
2:53 pm 14:53 Sunny 100 37.8 47 8.3 16 16 SSE 9 15 29.84 1011 10 16 0.00 0.00
3:53 pm 15:53 undefined 103 39.4 44 6.7 13 13 S 7 11 29.81 1010 10 16 0.00 0.00
4:53 pm 16:53 Sunny 103 39.4 43 6.1 13 13 SSW 10 17 29.79 1009 10 16 0.00 0.00
5:53 pm 17:53 Sunny 103 39.4 43 6.1 13 13 S 10 17 29.78 1008 10 16 0.00 0.00
6:53 pm 18:53 Sunny 102 38.9 45 7.2 14 14 S 13 20 29.76 1008 10 16 0.00 0.00
7:53 pm 19:53 Sunny 99 37.2 47 8.3 17 17 SE 14 22 29.76 1008 10 16 0.00 0.00
8:53 pm 20:53 Clear 96 35.6 48 8.9 19 19 SE 14 22 29.78 1009 10 16 0.00 0.00
9:53 pm 21:53 Clear 93 33.9 49 9.4 22 22 SE 10 17 29.80 1009 10 16 0.00 0.00
10:53 pm 22:53 Clear 91 32.8 49 9.4 24 24 SSE 13 20 29.82 1010 10 16 0.00 0.00
11:53 pm 23:53 Clear 89 31.7 50 10 26 26 SSE 14 22 29.83 1010 10 16 0.00 0.00

Powered by AerisWeather